| time (UTC) | temp F | wind direction | speed knots | gust knots | rain 1hr in | rain 24hr in | rain mn in | humidity % | barometer mb |
| 20260507174323 | 65 | 129 | 6.1 | 13.0 | 0.00 | 0.00 | 0.00 | 58 | 1019.5 |
| 20260507173321 | 65 | 101 | 7.8 | 13.0 | 0.00 | 0.00 | 0.00 | 58 | 1019.6 |
| 20260507172339 | 64 | 139 | 5.2 | 12.2 | 0.00 | 0.00 | 0.00 | 58 | 1019.5 |
| 20260507171337 | 64 | 105 | 7.8 | 12.2 | 0.00 | 0.00 | 0.00 | 58 | 1019.7 |
| 20260507170336 | 63 | 143 | 3.5 | 12.2 | 0.00 | 0.00 | 0.00 | 59 | 1019.8 |
| 20260507165333 | 63 | 113 | 5.2 | 11.3 | 0.00 | 0.00 | 0.00 | 58 | 1020.0 |
| 20260507164335 | 62 | 134 | 7.0 | 13.9 | 0.00 | 0.00 | 0.00 | 59 | 1020.0 |
| 20260507163330 | 62 | 130 | 7.0 | 13.9 | 0.00 | 0.00 | 0.00 | 59 | 1020.0 |
| 20260507162325 | 61 | 126 | 5.2 | 13.0 | 0.00 | 0.00 | 0.00 | 60 | 1020.2 |
| 20260507161339 | 61 | 122 | 6.1 | 13.9 | 0.00 | 0.00 | 0.00 | 61 | 1020.3 |
| 20260507160339 | 60 | 115 | 7.0 | 13.9 | 0.00 | 0.00 | 0.00 | 61 | 1020.3 |
| 20260507155335 | 60 | 98 | 6.1 | 13.9 | 0.00 | 0.00 | 0.00 | 62 | 1020.1 |
| 20260507154333 | 60 | 125 | 6.1 | 13.0 | 0.00 | 0.00 | 0.00 | 62 | 1020.1 |
| 20260507153332 | 59 | 90 | 8.7 | 12.2 | 0.00 | 0.00 | 0.00 | 62 | 1020.3 |
| 20260507152326 | 59 | 130 | 9.6 | 13.9 | 0.00 | 0.00 | 0.00 | 63 | 1020.2 |
| 20260507151321 | 59 | 125 | 5.2 | 12.2 | 0.00 | 0.00 | 0.00 | 62 | 1020.3 |
| 20260507150336 | 59 | 133 | 5.2 | 13.9 | 0.00 | 0.00 | 0.00 | 59 | 1020.1 |
| 20260507145335 | 58 | 115 | 5.2 | 11.3 | 0.00 | 0.00 | 0.00 | 60 | 1020.2 |
| 20260507144330 | 58 | 121 | 6.1 | 11.3 | 0.00 | 0.00 | 0.00 | 61 | 1020.2 |
| 20260507143325 | 57 | 130 | 7.0 | 11.3 | 0.00 | 0.00 | 0.00 | 62 | 1020.2 |
| 20260507142323 | 57 | 128 | 3.5 | 5.2 | 0.00 | 0.00 | 0.00 | 63 | 1020.2 |
| 20260507141338 | 57 | 92 | 3.5 | 8.7 | 0.00 | 0.00 | 0.00 | 62 | 1020.3 |
| 20260507140333 | 55 | 75 | 0.9 | 9.6 | 0.00 | 0.00 | 0.00 | 62 | 1020.3 |
| 20260507135332 | 55 | 79 | 5.2 | 9.6 | 0.00 | 0.00 | 0.00 | 63 | 1020.3 |
| 20260507134330 | 54 | 125 | 3.5 | 9.6 | 0.00 | 0.00 | 0.00 | 64 | 1020.2 |
| 20260507133325 | 53 | 98 | 5.2 | 8.7 | 0.00 | 0.00 | 0.00 | 64 | 1020.2 |
| 20260507132339 | 51 | 127 | 2.6 | 5.2 | 0.00 | 0.00 | 0.00 | 64 | 1020.2 |
| 20260507131338 | 50 | 125 | 2.6 | 7.8 | 0.00 | 0.00 | 0.00 | 64 | 1020.1 |
| 20260507130333 | 50 | 128 | 2.6 | 7.8 | 0.00 | 0.00 | 0.00 | 64 | 1020.1 |
| 20260507125328 | 50 | 130 | 4.3 | 7.0 | 0.00 | 0.00 | 0.00 | 64 | 1020.1 |
| 20260507124327 | 50 | 123 | 2.6 | 6.1 | 0.00 | 0.00 | 0.00 | 62 | 1019.9 |
| 20260507123325 | 51 | 119 | 0.0 | 4.3 | 0.00 | 0.00 | 0.00 | 61 | 1019.5 |
| 20260507122339 | 51 | 101 | 0.9 | 4.3 | 0.00 | 0.00 | 0.00 | 59 | 1019.5 |
| 20260507121334 | 51 | 117 | 1.7 | 5.2 | 0.00 | 0.00 | 0.00 | 57 | 1019.2 |
| 20260507120333 | 53 | 113 | 0.0 | 6.1 | 0.00 | 0.00 | 0.00 | 54 | 1019.2 |
| 20260507115328 | 55 | 117 | 0.9 | 5.2 | 0.00 | 0.00 | 0.00 | 48 | 1019.1 |
| 20260507114323 | 57 | 41 | 0.0 | 1.7 | 0.00 | 0.00 | 0.00 | 45 | 1018.7 |
| 20260507113322 | 58 | 126 | 0.0 | 4.3 | 0.00 | 0.00 | 0.00 | 38 | 1018.6 |
| 20260507112339 | 59 | 19 | 0.0 | 8.7 | 0.00 | 0.00 | 0.00 | 36 | 1018.2 |
| 20260507111334 | 60 | 24 | 3.5 | 9.6 | 0.00 | 0.00 | 0.00 | 35 | 1018.1 |
| 20260507110333 | 60 | 294 | 1.7 | 4.3 | 0.00 | 0.00 | 0.00 | 35 | 1018.1 |
| 20260507105328 | 62 | 25 | 0.0 | 7.8 | 0.00 | 0.00 | 0.00 | 33 | 1018.0 |
| 20260507104326 | 63 | 360 | 1.7 | 10.4 | 0.00 | 0.00 | 0.00 | 34 | 1018.2 |
| 20260507103321 | 63 | 76 | 0.0 | 1.7 | 0.00 | 0.00 | 0.00 | 33 | 1018.0 |
| 20260507102339 | 63 | 75 | 0.0 | 2.6 | 0.00 | 0.00 | 0.00 | 32 | 1017.7 |
| 20260507101334 | 63 | 73 | 0.0 | 0.9 | 0.00 | 0.00 | 0.00 | 33 | 1017.6 |
| 20260507100329 | 63 | 76 | 0.0 | 0.0 | 0.00 | 0.00 | 0.00 | 34 | 1017.5 |
| 20260507095328 | 63 | 82 | 0.0 | 0.9 | 0.00 | 0.00 | 0.00 | 35 | 1017.6 |
| 20260507094326 | 62 | 82 | 0.0 | 1.7 | 0.00 | 0.00 | 0.00 | 36 | 1018.4 |
| 20260507093324 | 62 | 108 | 0.0 | 0.0 | 0.00 | 0.00 | 0.00 | 39 | 1018.4 |
| 20260507092322 | 62 | 109 | 0.0 | 0.0 | 0.00 | 0.00 | 0.00 | 44 | 1018.4 |
| 20260507091337 | 62 | 109 | 0.0 | 0.0 | 0.00 | 0.00 | 0.00 | 43 | 1018.4 |
| 20260507090332 | 62 | 109 | 0.0 | 0.9 | 0.00 | 0.00 | 0.00 | 49 | 1018.4 |
| 20260507085327 | 62 | 109 | 0.0 | 0.0 | 0.00 | 0.00 | 0.00 | 51 | 1018.6 |
| 20260507084326 | 62 | 109 | 0.0 | 0.9 | 0.00 | 0.00 | 0.00 | 52 | 1018.7 |
| 20260507083324 | 62 | 109 | 0.0 | 0.0 | 0.00 | 0.00 | 0.00 | 52 | 1018.7 |
| 20260507082338 | 62 | 113 | 0.0 | 2.6 | 0.00 | 0.00 | 0.00 | 53 | 1018.8 |
| 20260507081337 | 62 | 107 | 0.0 | 1.7 | 0.00 | 0.00 | 0.00 | 52 | 1018.7 |
| 20260507080332 | 62 | 107 | 0.0 | 1.7 | 0.00 | 0.00 | 0.00 | 52 | 1018.8 |
| 20260507075327 | 62 | 107 | 0.0 | 0.9 | 0.00 | 0.00 | 0.00 | 52 | 1018.9 |
| 20260507074322 | 63 | 108 | 0.0 | 0.9 | 0.00 | 0.00 | 0.00 | 52 | 1019.0 |
| 20260507073321 | 63 | 109 | 0.0 | 0.9 | 0.00 | 0.00 | 0.00 | 50 | 1019.1 |
| 20260507072338 | 63 | 109 | 0.0 | 0.0 | 0.00 | 0.00 | 0.00 | 46 | 1019.1 |
| 20260507071333 | 64 | 109 | 0.9 | 2.6 | 0.00 | 0.00 | 0.00 | 42 | 1019.2 |
| 20260507070332 | 65 | 119 | 0.0 | 5.2 | 0.00 | 0.00 | 0.00 | 34 | 1019.2 |
| 20260507065327 | 66 | 9 | 0.0 | 7.8 | 0.00 | 0.00 | 0.00 | 31 | 1018.8 |
| 20260507064325 | 66 | 17 | 3.5 | 7.8 | 0.00 | 0.00 | 0.00 | 28 | 1018.8 |
| 20260507063324 | 66 | 20 | 0.0 | 0.9 | 0.00 | 0.00 | 0.00 | 27 | 1018.8 |
| 20260507062338 | 65 | 36 | 0.0 | 1.7 | 0.00 | 0.00 | 0.00 | 27 | 1018.7 |
| 20260507061333 | 65 | 15 | 0.0 | 1.7 | 0.00 | 0.00 | 0.00 | 29 | 1018.8 |
| 20260507060328 | 65 | 101 | 0.0 | 1.7 | 0.00 | 0.00 | 0.00 | 30 | 1018.7 |
| 20260507055327 | 66 | 101 | 0.0 | 2.6 | 0.00 | 0.00 | 0.00 | 29 | 1018.6 |
| 20260507054325 | 66 | 101 | 1.7 | 4.3 | 0.00 | 0.00 | 0.00 | 29 | 1018.6 |
| 20260507053340 | 66 | 92 | 0.0 | 0.9 | 0.00 | 0.00 | 0.00 | 29 | 1018.6 |
| 20260507052335 | 66 | 98 | 2.6 | 3.5 | 0.00 | 0.00 | 0.00 | 28 | 1018.6 |
| 20260507051330 | 66 | 101 | 0.9 | 4.3 | 0.00 | 0.00 | 0.00 | 27 | 1018.6 |
| 20260507050322 | 67 | 182 | 0.0 | 2.6 | 0.00 | 0.00 | 0.00 | 27 | 1018.6 |
| 20260507045337 | 67 | 233 | 1.7 | 3.5 | 0.00 | 0.00 | 0.00 | 25 | 1018.6 |
| 20260507044335 | 65 | 236 | 0.0 | 0.0 | 0.00 | 0.00 | 0.00 | 27 | 1018.6 |
| 20260507043332 | 64 | 236 | 0.0 | 0.0 | 0.00 | 0.00 | 0.00 | 27 | 1018.5 |
| 20260507042330 | 64 | 236 | 0.0 | 0.0 | 0.00 | 0.00 | 0.00 | 27 | 1018.3 |
| 20260507041329 | 64 | 236 | 0.0 | 1.7 | 0.00 | 0.00 | 0.00 | 28 | 1018.2 |
| 20260507040326 | 64 | 236 | 0.9 | 2.6 | 0.00 | 0.00 | 0.00 | 27 | 1018.0 |
| 20260507035320 | 63 | 236 | 0.0 | 0.0 | 0.00 | 0.00 | 0.00 | 29 | 1018.0 |
| 20260507034336 | 64 | 235 | 0.0 | 0.0 | 0.00 | 0.00 | 0.00 | 28 | 1017.8 |
| 20260507033335 | 64 | 235 | 0.0 | 0.0 | 0.00 | 0.00 | 0.00 | 28 | 1017.7 |
| 20260507032329 | 64 | 235 | 0.0 | 0.0 | 0.00 | 0.00 | 0.00 | 28 | 1017.6 |
| 20260507031324 | 65 | 235 | 0.0 | 0.0 | 0.00 | 0.00 | 0.00 | 28 | 1017.4 |
| 20260507030340 | 66 | 235 | 0.0 | 0.0 | 0.00 | 0.00 | 0.00 | 28 | 1017.3 |
| 20260507025333 | 66 | 235 | 0.0 | 0.0 | 0.00 | 0.00 | 0.00 | 26 | 1017.1 |
| 20260507024329 | 67 | 235 | 0.0 | 0.0 | 0.00 | 0.00 | 0.00 | 26 | 1017.1 |
| 20260507023330 | 68 | 235 | 0.0 | 0.0 | 0.00 | 0.00 | 0.00 | 25 | 1016.8 |
| 20260507022324 | 68 | 232 | 0.0 | 0.0 | 0.00 | 0.00 | 0.00 | 25 | 1016.4 |
| 20260507021339 | 70 | 229 | 0.0 | 0.0 | 0.00 | 0.00 | 0.00 | 24 | 1016.4 |
| 20260507020334 | 71 | 207 | 0.0 | 0.0 | 0.00 | 0.00 | 0.00 | 23 | 1016.2 |
| 20260507015333 | 72 | 205 | 0.0 | 0.0 | 0.00 | 0.00 | 0.00 | 21 | 1016.0 |
| 20260507014328 | 73 | 205 | 0.0 | 0.0 | 0.00 | 0.00 | 0.00 | 22 | 1016.0 |
| 20260507013321 | 74 | 205 | 0.0 | 0.0 | 0.00 | 0.00 | 0.00 | 21 | 1015.8 |
| 20260507012340 | 75 | 205 | 0.0 | 2.6 | 0.00 | 0.00 | 0.00 | 21 | 1015.7 |
| 20260507011334 | 76 | 206 | 0.0 | 1.7 | 0.00 | 0.00 | 0.00 | 20 | 1015.7 |
| 20260507010329 | 76 | 206 | 0.0 | 4.3 | 0.00 | 0.00 | 0.00 | 20 | 1015.4 |
| 20260507005325 | 77 | 214 | 1.7 | 4.3 | 0.00 | 0.00 | 0.00 | 19 | 1015.3 |
| 20260507004340 | 77 | 208 | 0.0 | 5.2 | 0.00 | 0.00 | 0.00 | 19 | 1015.3 |
| 20260507003332 | 77 | 206 | 2.6 | 4.3 | 0.00 | 0.00 | 0.00 | 19 | 1015.2 |
| 20260507002325 | 78 | 207 | 2.6 | 6.1 | 0.00 | 0.00 | 0.00 | 19 | 1015.1 |
| 20260507001325 | 78 | 197 | 0.9 | 5.2 | 0.00 | 0.00 | 0.00 | 19 | 1015.1 |
| 20260507000339 | 78 | 201 | 2.6 | 5.2 | 0.00 | 0.00 | 0.00 | 19 | 1015.0 |
| 20260506235334 | 77 | 210 | 2.6 | 5.2 | 0.00 | 0.00 | 0.00 | 19 | 1015.2 |
| 20260506234330 | 76 | 223 | 0.0 | 5.2 | 0.00 | 0.00 | 0.00 | 19 | 1015.2 |
| 20260506233327 | 77 | 235 | 2.6 | 4.3 | 0.00 | 0.00 | 0.00 | 19 | 1015.2 |
| 20260506232321 | 77 | 244 | 0.9 | 5.2 | 0.00 | 0.00 | 0.00 | 20 | 1015.3 |
| 20260506231338 | 77 | 165 | 2.6 | 7.0 | 0.00 | 0.00 | 0.00 | 18 | 1015.2 |
| 20260506230337 | 77 | 273 | 0.0 | 4.3 | 0.00 | 0.00 | 0.00 | 20 | 1015.2 |
| 20260506225332 | 77 | 284 | 0.0 | 5.2 | 0.00 | 0.00 | 0.00 | 19 | 1015.3 |
| 20260506224327 | 76 | 310 | 4.3 | 9.6 | 0.00 | 0.00 | 0.00 | 19 | 1015.2 |
| 20260506223327 | 77 | 274 | 0.0 | 5.2 | 0.00 | 0.00 | 0.00 | 17 | 1015.2 |
| 20260506222324 | 76 | 267 | 2.6 | 13.9 | 0.00 | 0.00 | 0.00 | 18 | 1015.3 |
| 20260506221338 | 77 | 319 | 4.3 | 13.0 | 0.00 | 0.00 | 0.00 | 17 | 1015.4 |
| 20260506220333 | 77 | 289 | 6.1 | 14.8 | 0.00 | 0.00 | 0.00 | 16 | 1015.3 |
| 20260506215332 | 77 | 221 | 2.6 | 14.8 | 0.00 | 0.00 | 0.00 | 15 | 1015.1 |
| 20260506214327 | 78 | 298 | 7.0 | 13.0 | 0.00 | 0.00 | 0.00 | 15 | 1015.2 |
| 20260506213325 | 78 | 273 | 4.3 | 13.0 | 0.00 | 0.00 | 0.00 | 16 | 1015.4 |
| 20260506212324 | 78 | 257 | 0.0 | 12.2 | 0.00 | 0.00 | 0.00 | 16 | 1015.4 |
| 20260506211322 | 79 | 229 | 4.3 | 13.0 | 0.00 | 0.00 | 0.00 | 15 | 1015.5 |
| 20260506210339 | 79 | 274 | 6.1 | 12.2 | 0.00 | 0.00 | 0.00 | 18 | 1015.6 |
| 20260506205334 | 79 | 283 | 5.2 | 8.7 | 0.00 | 0.00 | 0.00 | 18 | 1015.5 |
| 20260506204332 | 79 | 275 | 7.0 | 10.4 | 0.00 | 0.00 | 0.00 | 17 | 1015.6 |
| 20260506203330 | 79 | 324 | 0.0 | 0.0 | 0.00 | 0.00 | 0.00 | 18 | 1015.7 |
| 20260506202324 | 79 | 275 | 3.5 | 13.0 | 0.00 | 0.00 | 0.00 | 20 | 1015.9 |
| 20260506201324 | 79 | 250 | 0.0 | 7.8 | 0.00 | 0.00 | 0.00 | 19 | 1015.8 |
| 20260506200321 | 78 | 272 | 3.5 | 12.2 | 0.00 | 0.00 | 0.00 | 19 | 1015.9 |
| 20260506195319 | 78 | 302 | 10.4 | 16.5 | 0.00 | 0.00 | 0.00 | 18 | 1016.0 |
| 20260506194322 | 77 | 225 | 1.7 | 13.0 | 0.00 | 0.00 | 0.00 | 20 | 1016.2 |
| 20260506193337 | 78 | 299 | 7.0 | 14.8 | 0.00 | 0.00 | 0.00 | 19 | 1016.2 |
| 20260506192330 | 77 | 294 | 7.8 | 13.0 | 0.00 | 0.00 | 0.00 | 22 | 1016.2 |
| 20260506191325 | 78 | 237 | 0.9 | 11.3 | 0.00 | 0.00 | 0.00 | 20 | 1016.4 |
| 20260506190325 | 78 | 275 | 9.6 | 13.0 | 0.00 | 0.00 | 0.00 | 22 | 1016.4 |
| 20260506185339 | 77 | 220 | 4.3 | 9.6 | 0.00 | 0.00 | 0.00 | 23 | 1016.6 |
| 20260506184334 | 76 | 213 | 3.5 | 9.6 | 0.00 | 0.00 | 0.00 | 23 | 1016.8 |
| 20260506183333 | 75 | 222 | 3.5 | 9.6 | 0.00 | 0.00 | 0.00 | 24 | 1017.0 |
| 20260506182328 | 75 | 280 | 0.0 | 4.3 | 0.00 | 0.00 | 0.00 | 25 | 1016.9 |
| 20260506181325 | 74 | 319 | 5.2 | 12.2 | 0.00 | 0.00 | 0.00 | 25 | 1017.1 |
| 20260506180325 | 74 | 291 | 3.5 | 10.4 | 0.00 | 0.00 | 0.00 | 26 | 1017.2 |
| 20260506175339 | 74 | 307 | 4.3 | 10.4 | 0.00 | 0.00 | 0.00 | 24 | 1017.2 |